This demonstration page uses our WeatherBlox Daily Observations layout. Learn more.

Hourly Observations for January 15, 2018

Temp ( °F °C ) Dew Point ( °F °C ) Humidity (%) Winds ( mph kmh ) Pressure ( in mb ) Visibility ( mi km ) Precip ( " mm )
12:15 am 00:15 Cloudy 28 -2 24 -4.5 83 83 N 18 30 30.39 1029 10 16.0934 0 0
12:35 am 00:35 Cloudy 27 -2.6 20 -6.5 75 75 NNW 20 31 30.42 1030 10 16.0934 0 0
12:55 am 00:55 Cloudy 26 -3.2 20 -6.9 76 76 N 17 28 30.42 1030 10 16.0934 0 0
1:15 am 01:15 Cloudy 25 -3.9 20 -6.7 81 81 N 18 30 30.42 1030 10 16.0934 0 0
1:35 am 01:35 Mostly Cloudy 24 -4.5 19 -7.4 80 80 N 22 35 30.48 1032 10 16.0934 0 0
1:55 am 01:55 Mostly Cloudy 22 -5.8 15 -9.3 77 77 NNW 16 26 30.48 1032 10 16.0934 0 0
2:15 am 02:15 Partly Cloudy 20 -6.6 13 -10.4 75 75 NNW 17 28 30.48 1032 10 16.0934 0 0
2:35 am 02:35 Partly Cloudy 19 -7 12 -11.1 73 73 NNW 17 28 30.53 1034 10 16.0934 0 0
2:55 am 02:55 Clear 18 -7.6 11 -11.4 74 74 NNW 16 26 30.53 1034 10 16.0934 0 0
3:15 am 03:15 Clear 17 -8.3 11 -11.6 77 77 N 20 31 30.53 1034 10 16.0934 0 0
3:35 am 03:35 Clear 15 -9.3 8 -13.2 74 74 N 18 30 30.59 1036 10 16.0934 0 0
3:55 am 03:55 Clear 14 -10.1 4 -15.3 66 66 N 16 26 30.59 1036 10 16.0934 0 0
4:15 am 04:15 Partly Cloudy 13 -10.6 5 -14.8 72 72 NNW 17 28 30.59 1036 10 16.0934 0 0
4:35 am 04:35 Partly Cloudy 12 -11.2 4 -15.6 70 70 N 16 26 30.62 1037 10 16.0934 0 0
4:55 am 04:55 Clear 11 -11.7 4 -15.3 75 75 N 20 31 30.65 1038 10 16.0934 0 0
5:15 am 05:15 Partly Cloudy 10 -12.4 3 -16 75 75 N 21 33 30.65 1038 10 16.0934 0 0
5:35 am 05:35 Clear 9 -12.6 3 -16 76 76 N 17 28 30.68 1039 10 16.0934 0 0
5:55 am 05:55 Clear 8 -13.3 2 -16.5 77 77 N 17 28 30.71 1040 10 16.0934 0 0
6:15 am 06:15 Clear 7 -13.8 2 -16.8 78 78 N 15 24 30.74 1041 10 16.0934 0 0
6:35 am 06:35 Clear 6 -14.2 1 -17 80 80 NNW 13 20 30.74 1041 10 16.0934 0 0
6:55 am 06:55 Clear 6 -14.3 1 -17.2 79 79 NNW 15 24 30.74 1041 10 16.0934 0 0
7:15 am 07:15 Clear 6 -14.5 1 -17.5 78 78 N 16 26 30.74 1041 10 16.0934 0 0
7:35 am 07:35 Clear 6 -14.7 -1 -18.1 76 76 N 16 26 30.77 1042 10 16.0934 0 0
7:55 am 07:55 Clear 4 -15.3 -2 -18.9 74 74 N 17 28 30.77 1042 10 16.0934 0 0
8:15 am 08:15 Sunny 4 -15.5 -2 -19 75 75 NNW 15 24 30.77 1042 10 16.0934 0 0
8:35 am 08:35 Sunny 4 -15.5 -2 -19.1 74 74 NNW 20 31 30.8 1043 10 16.0934 0 0
8:55 am 08:55 Sunny 4 -15.5 -3 -19.4 72 72 NNW 17 28 30.8 1043 10 16.0934 0 0
9:15 am 09:15 Sunny 4 -15.5 -3 -19.5 72 72 NNW 16 26 30.83 1044 10 16.0934 0 0
9:35 am 09:35 Sunny 5 -15.2 -3 -19.2 72 72 NNW 16 26 30.83 1044 10 16.0934 0 0
9:55 am 09:55 Partly Cloudy 5 -15 -2 -18.8 73 73 NNW 17 28 30.83 1044 10 16.0934 0 0
10:15 am 10:15 Partly Cloudy 5 -15.1 -3 -19.2 71 71 NNW 16 26 30.83 1044 10 16.0934 0 0
10:35 am 10:35 Partly Cloudy 5 -14.9 -2 -19 71 71 NNW 20 31 30.83 1044 10 16.0934 0 0
10:55 am 10:55 Mostly Cloudy 6 -14.5 -1 -18.6 71 71 NNW 17 28 30.83 1044 10 16.0934 0 0
11:15 am 11:15 Partly Cloudy 6 -14.6 -3 -19.3 68 68 NNW 17 28 30.86 1045 10 16.0934 0 0
11:35 am 11:35 Partly Cloudy 6 -14.5 -3 -19.5 66 66 NNW 17 28 30.86 1045 10 16.0934 0 0
11:55 am 11:55 Sunny 6 -14.2 -3 -19.6 64 64 NNW 16 26 30.86 1045 10 16.0934 0 0
12:15 pm 12:15 Sunny 6 -14.6 -4 -20 64 64 NNW 18 30 30.83 1044 10 16.0934 0 0
12:35 pm 12:35 Partly Cloudy 6 -14.3 -3 -19.3 66 66 NNW 20 31 30.83 1044 10 16.0934 0 0
12:55 pm 12:55 Partly Cloudy 5 -15 -4 -20.1 65 65 NNW 20 31 30.83 1044 10 16.0934 0 0
1:15 pm 13:15 Partly Cloudy 6 -14.6 -3 -19.6 66 66 NNW 21 33 30.83 1044 10 16.0934 0 0
1:35 pm 13:35 Partly Cloudy 6 -14.5 -3 -19.3 67 67 NNW 18 30 30.83 1044 10 16.0934 0 0
1:55 pm 13:55 Mostly Cloudy 6 -14.5 -3 -19.3 67 67 NNW 18 30 30.83 1044 10 16.0934 0 0
2:15 pm 14:15 Mostly Cloudy 6 -14.5 -3 -19.4 67 67 NNW 20 31 30.83 1044 10 16.0934 0 0
2:35 pm 14:35 Partly Cloudy 6 -14.2 -2 -19 67 67 NNW 17 28 30.83 1044 10 16.0934 0 0
2:55 pm 14:55 Mostly Cloudy 7 -14 -2 -19.1 66 66 NNW 18 30 30.83 1044 10 16.0934 0 0
3:15 pm 15:15 Mostly Cloudy 7 -14.1 -3 -19.2 66 66 NNW 21 33 30.83 1044 10 16.0934 0 0
3:35 pm 15:35 Partly Cloudy 7 -14 -3 -19.2 65 65 N 20 31 30.83 1044 10 16.0934 0 0
3:55 pm 15:55 Sunny 7 -14 -3 -19.5 63 63 N 21 33 30.83 1044 10 16.0934 0 0
4:15 pm 16:15 Sunny 7 -14 -3 -19.4 64 64 NNW 18 30 30.83 1044 10 16.0934 0 0
4:35 pm 16:35 Sunny 7 -14 -3 -19.4 64 64 NNW 18 30 30.83 1044 10 16.0934 0 0
4:55 pm 16:55 Sunny 7 -14.1 -3 -19.5 64 64 NNW 22 35 30.86 1045 10 16.0934 0 0
5:15 pm 17:15 Sunny 6 -14.5 -3 -19.6 65 65 NNW 12 19 30.86 1045 10 16.0934 0 0
5:35 pm 17:35 Sunny 6 -14.7 -3 -19.5 67 67 NNW 14 22 30.86 1045 10 16.0934 0 0
5:55 pm 17:55 Clear 5 -15 -3 -19.7 68 68 NNW 14 22 30.86 1045 10 16.0934 0 0
6:15 pm 18:15 Clear 5 -15.2 -3 -19.7 69 69 NNW 13 20 30.86 1045 10 16.0934 0 0
6:35 pm 18:35 Clear 4 -15.4 -4 -19.9 69 69 NNW 17 28 30.89 1046 10 16.0934 0 0
6:55 pm 18:55 Clear 4 -15.5 -4 -20 69 69 NNW 14 22 30.89 1046 10 16.0934 0 0
7:15 pm 19:15 Clear 4 -15.5 -4 -20 69 69 NNW 15 24 30.92 1047 10 16.0934 0 0
7:35 pm 19:35 Clear 4 -15.6 -4 -20 69 69 NNW 16 26 30.92 1047 10 16.0934 0 0
7:55 pm 19:55 Clear 4 -15.7 -4 -20.1 69 69 NNW 17 28 30.92 1047 10 16.0934 0 0
8:15 pm 20:15 Clear 4 -15.8 -4 -20.1 70 70 NNW 15 24 30.92 1047 10 16.0934 0 0
8:35 pm 20:35 Clear 3 -16 -4 -20.2 70 70 NNW 10 17 30.92 1047 10 16.0934 0 0
8:55 pm 20:55 Clear 3 -16 -4 -20.2 70 70 NNW 17 28 30.92 1047 10 16.0934 0 0
9:15 pm 21:15 Clear 3 -16.1 -5 -20.3 70 70 NNW 16 26 30.92 1047 10 16.0934 0 0
9:35 pm 21:35 Clear 3 -16.1 -5 -20.5 69 69 NNW 15 24 30.92 1047 10 16.0934 0 0
9:55 pm 21:55 Clear 3 -16.3 -5 -20.5 70 70 NNW 16 26 30.95 1048 10 16.0934 0 0
10:15 pm 22:15 Clear 2 -16.5 -5 -20.6 71 71 NNW 13 20 30.95 1048 10 16.0934 0 0
10:35 pm 22:35 Clear 2 -16.6 -5 -20.7 71 71 NNW 16 26 30.95 1048 10 16.0934 0 0
10:55 pm 22:55 Clear 2 -16.7 -6 -21 70 70 NNW 15 24 30.95 1048 10 16.0934 0 0
11:15 pm 23:15 Clear 2 -16.8 -6 -21.2 69 69 NNW 16 26 30.95 1048 10 16.0934 0 0
11:35 pm 23:35 Clear 1 -17 -6 -21.2 70 70 NNW 16 26 30.95 1048 10 16.0934 0 0
11:55 pm 23:55 Clear 1 -17.2 -6 -21.3 71 71 NNW 17 28 30.95 1048 10 16.0934 0 0

Powered by AerisWeather